NJE039G LPCS-LFPB

Flight info

Callsign NJE039G
Flight time N/A
Altitude 40000
Route IXIDA1T IXIDA DCT RIVRO DCT TOSDI N745 ZMR N873 DELOG DCT YURZI DCT NTS/N0464F300 UN741 KEPER KEPER9E
Aircraft CL60/M-SBDE1E2E3FGHIJ1J3J4J7P2RWXYZ/LB1D1

Departure

Time 2026-04-14 12:05
Airport Cascais Airport (LPCS)

Arrival

Time N/A
Airport Paris-Le Bourget International Airport (LFPB)
Time Latitude Longitude Altitude Speed Heading
2026-04-14 11:39 38.72466 -9.35661 321 ft 0 kts 74°
2026-04-14 12:01 38.72466 -9.35658 321 ft 1 kts 74°
2026-04-14 12:02 38.72471 -9.35641 321 ft 2 kts 71°
2026-04-14 12:02 38.72438 -9.35606 321 ft 12 kts 166°
2026-04-14 12:02 38.72374 -9.35581 319 ft 7 kts 163°
2026-04-14 12:02 38.72346 -9.35520 319 ft 10 kts 70°
2026-04-14 12:03 38.72311 -9.35444 318 ft 14 kts 168°
2026-04-14 12:03 38.72195 -9.35407 313 ft 20 kts 161°
2026-04-14 12:03 38.72041 -9.35350 309 ft 25 kts 165°
2026-04-14 12:03 38.71869 -9.35296 304 ft 21 kts 167°
2026-04-14 12:04 38.71795 -9.35270 303 ft 2 kts 93°
2026-04-14 12:04 38.71876 -9.35295 305 ft 5 kts 343°
2026-04-14 12:04 38.72059 -9.35360 310 ft 83 kts 345°
2026-04-14 12:04 38.72936 -9.35681 438 ft 165 kts 342°
2026-04-14 12:05 38.74066 -9.36102 1428 ft 174 kts 343°
2026-04-14 12:05 38.75083 -9.36949 2402 ft 196 kts 307°
2026-04-14 12:05 38.75521 -9.38807 2860 ft 253 kts 270°
2026-04-14 12:05 38.74989 -9.41192 2969 ft 300 kts 246°
2026-04-14 12:06 38.74052 -9.43634 3334 ft 291 kts 245°
2026-04-14 12:06 38.73147 -9.45910 3860 ft 298 kts 240°
2026-04-14 12:06 38.71864 -9.47880 5350 ft 291 kts 223°
2026-04-14 12:06 38.70237 -9.49354 6869 ft 288 kts 212°
2026-04-14 12:07 38.68557 -9.50667 8231 ft 289 kts 218°
2026-04-14 12:07 38.67187 -9.52481 9455 ft 290 kts 240°
2026-04-14 12:07 38.66466 -9.54835 10679 ft 287 kts 264°
2026-04-14 12:07 38.66436 -9.57348 11926 ft 285 kts 276°
2026-04-14 12:08 38.66541 -9.59845 13153 ft 284 kts 276°
2026-04-14 12:08 38.66656 -9.62319 14361 ft 279 kts 280°
2026-04-14 12:08 38.67204 -9.64635 15528 ft 272 kts 301°
2026-04-14 12:08 38.68345 -9.66477 16657 ft 266 kts 320°
2026-04-14 12:09 38.69898 -9.67631 17718 ft 262 kts 340°
2026-04-14 12:09 38.71755 -9.68029 18363 ft 278 kts 355°
2026-04-14 12:09 38.73857 -9.68076 18352 ft 315 kts 357°
2026-04-14 12:09 38.76140 -9.68064 18556 ft 341 kts
2026-04-14 12:10 38.78501 -9.67394 19089 ft 356 kts 14°
2026-04-14 12:10 38.80904 -9.66462 19805 ft 361 kts 14°
2026-04-14 12:10 38.83288 -9.65549 20562 ft 364 kts 13°
2026-04-14 12:10 38.85741 -9.64611 21268 ft 368 kts 13°
2026-04-14 12:11 38.88187 -9.63627 22026 ft 374 kts 18°
2026-04-14 12:11 38.90431 -9.62016 23251 ft 368 kts 33°
2026-04-14 12:11 38.92237 -9.59759 24552 ft 363 kts 47°
2026-04-14 12:11 38.93547 -9.56996 25526 ft 367 kts 62°
2026-04-14 12:12 38.94472 -9.53859 26295 ft 373 kts 65°
2026-04-14 12:12 38.95366 -9.50679 26956 ft 379 kts 65°
2026-04-14 12:12 38.96276 -9.47452 27616 ft 383 kts 65°
2026-04-14 12:12 38.97185 -9.44223 28263 ft 387 kts 65°
2026-04-14 12:13 38.98107 -9.40944 28871 ft 392 kts 65°
2026-04-14 12:13 38.99034 -9.37647 29453 ft 396 kts 65°
2026-04-14 12:13 38.99961 -9.34340 30032 ft 399 kts 66°
2026-04-14 12:13 39.00905 -9.30972 30596 ft 402 kts 66°
2026-04-14 12:14 39.01855 -9.27580 31132 ft 405 kts 66°
2026-04-14 12:14 39.02804 -9.24183 31635 ft 409 kts 66°
2026-04-14 12:14 39.03769 -9.20728 32132 ft 411 kts 66°
2026-04-14 12:14 39.04731 -9.17276 32597 ft 414 kts 66°
2026-04-14 12:15 39.05705 -9.13781 33032 ft 417 kts 66°
2026-04-14 12:15 39.06690 -9.10238 33435 ft 421 kts 66°
2026-04-14 12:15 39.07664 -9.06730 33842 ft 423 kts 66°
2026-04-14 12:15 39.08659 -9.03142 34255 ft 426 kts 66°
2026-04-14 12:16 39.09650 -8.99562 34788 ft 426 kts 66°
2026-04-14 12:16 39.10649 -8.95947 35358 ft 424 kts 65°
2026-04-14 12:16 39.11630 -8.92394 35955 ft 422 kts 65°
2026-04-14 12:16 39.12602 -8.88865 36543 ft 420 kts 65°
2026-04-14 12:17 39.13575 -8.85334 37037 ft 420 kts 65°
2026-04-14 12:17 39.14558 -8.81758 37439 ft 421 kts 65°
2026-04-14 12:17 39.15540 -8.78210 37841 ft 420 kts 63°
2026-04-14 12:17 39.16721 -8.74821 38229 ft 415 kts 55°
2026-04-14 12:18 39.18249 -8.71709 38585 ft 408 kts 47°
2026-04-14 12:18 39.20044 -8.68911 38923 ft 405 kts 42°
2026-04-14 12:18 39.21909 -8.66191 39246 ft 405 kts 42°
2026-04-14 12:18 39.23766 -8.63472 39575 ft 405 kts 41°
2026-04-14 12:19 39.25626 -8.60747 39874 ft 405 kts 42°
2026-04-14 12:19 39.27492 -8.58008 40206 ft 404 kts 41°
2026-04-14 12:19 39.31245 -8.52503 40251 ft 415 kts 42°
2026-04-14 12:20 39.35109 -8.46822 40242 ft 425 kts 42°
2026-04-14 12:20 39.39037 -8.41033 40243 ft 435 kts 42°
2026-04-14 12:21 39.43065 -8.35082 40240 ft 443 kts 42°
2026-04-14 12:21 39.47152 -8.29031 40238 ft 449 kts 43°
2026-04-14 12:22 39.51294 -8.22885 40242 ft 454 kts 43°
2026-04-14 12:22 39.55475 -8.16670 40237 ft 460 kts 43°
2026-04-14 12:23 39.59672 -8.10418 40240 ft 465 kts 43°
2026-04-14 12:23 39.63949 -8.04031 40241 ft 467 kts 43°
2026-04-14 12:24 39.68356 -7.97908 40241 ft 462 kts 39°
2026-04-14 12:24 39.72865 -7.92008 40234 ft 460 kts 39°
2026-04-14 12:25 39.77362 -7.86107 40233 ft 460 kts 39°
2026-04-14 12:25 39.81840 -7.80218 40233 ft 460 kts 39°
2026-04-14 12:26 39.86337 -7.74291 40233 ft 460 kts 39°
2026-04-14 12:26 39.90808 -7.68385 40228 ft 460 kts 39°
2026-04-14 12:27 39.95279 -7.62465 40226 ft 459 kts 39°
2026-04-14 12:27 39.99742 -7.56543 40225 ft 458 kts 39°
2026-04-14 12:28 40.04205 -7.50610 40227 ft 456 kts 39°
2026-04-14 12:28 40.08629 -7.44716 40227 ft 456 kts 39°
2026-04-14 12:29 40.13065 -7.38796 40225 ft 456 kts 39°
2026-04-14 12:29 40.17494 -7.32871 40226 ft 456 kts 39°
2026-04-14 12:30 40.21912 -7.26950 40224 ft 455 kts 39°
2026-04-14 12:30 40.26331 -7.21014 40221 ft 455 kts 39°
2026-04-14 12:31 40.30748 -7.15071 40227 ft 454 kts 39°
2026-04-14 12:31 40.35124 -7.09171 40225 ft 455 kts 39°
2026-04-14 12:32 40.39533 -7.03214 40224 ft 454 kts 39°
2026-04-14 12:32 40.43943 -6.97243 40225 ft 453 kts 39°
2026-04-14 12:33 40.48286 -6.91352 40216 ft 452 kts 39°
2026-04-14 12:33 40.52659 -6.85407 40224 ft 451 kts 39°
2026-04-14 12:34 40.57017 -6.79472 40216 ft 452 kts 39°
2026-04-14 12:34 40.61368 -6.73536 40216 ft 452 kts 39°
2026-04-14 12:35 40.65929 -6.67948 40211 ft 446 kts 35°
2026-04-14 12:35 40.70588 -6.62499 40212 ft 446 kts 35°
2026-04-14 12:36 40.75255 -6.57025 40211 ft 446 kts 35°
2026-04-14 12:36 40.79924 -6.51534 40213 ft 446 kts 35°
2026-04-14 12:37 40.84523 -6.46112 40216 ft 445 kts 35°
2026-04-14 12:37 40.89155 -6.40639 40210 ft 445 kts 35°
2026-04-14 12:38 40.96102 -6.32408 40211 ft 445 kts 35°
2026-04-14 12:39 41.00714 -6.26928 40214 ft 444 kts 35°
2026-04-14 12:39 41.05313 -6.21450 40217 ft 444 kts 35°
2026-04-14 12:40 41.09897 -6.15981 40208 ft 444 kts 35°
2026-04-14 12:40 41.14515 -6.10460 40208 ft 446 kts 35°
2026-04-14 12:41 41.19105 -6.04961 40206 ft 445 kts 35°
2026-04-14 12:41 41.23683 -5.99463 40204 ft 444 kts 35°
2026-04-14 12:42 41.28262 -5.93954 40205 ft 443 kts 36°
2026-04-14 12:42 41.32859 -5.88414 40204 ft 444 kts 35°
2026-04-14 12:43 41.37440 -5.82881 40204 ft 443 kts 35°
2026-04-14 12:43 41.41996 -5.77367 40205 ft 443 kts 35°
2026-04-14 12:44 41.46574 -5.71815 40204 ft 443 kts 35°
2026-04-14 12:44 41.51146 -5.66332 40203 ft 439 kts 32°
2026-04-14 12:45 41.56265 -5.62153 40205 ft 427 kts 18°
2026-04-14 12:45 41.58970 -5.60620 40203 ft 426 kts 17°
2026-04-14 12:45 41.64436 -5.57545 40204 ft 426 kts 17°
2026-04-14 12:46 41.69879 -5.54475 40202 ft 425 kts 17°
2026-04-14 12:46 41.75332 -5.51392 40198 ft 425 kts 17°
2026-04-14 12:47 41.80777 -5.48308 40199 ft 425 kts 17°
2026-04-14 12:47 41.86219 -5.45219 40196 ft 425 kts 17°
2026-04-14 12:48 41.91657 -5.42126 40192 ft 425 kts 17°
2026-04-14 12:48 41.97109 -5.39019 40192 ft 425 kts 17°
2026-04-14 12:49 42.02529 -5.35925 40194 ft 425 kts 17°
2026-04-14 12:49 42.07995 -5.32799 40195 ft 425 kts 18°
2026-04-14 12:50 42.16146 -5.28125 40199 ft 425 kts 18°
2026-04-14 12:51 42.21601 -5.24990 40195 ft 425 kts 17°
2026-04-14 12:51 42.27031 -5.21864 40198 ft 426 kts 17°
2026-04-14 12:52 42.32510 -5.18703 40195 ft 426 kts 17°
2026-04-14 12:52 42.37931 -5.15569 40198 ft 425 kts 17°
2026-04-14 12:53 42.43362 -5.12423 40200 ft 425 kts 17°
2026-04-14 12:53 42.48813 -5.09261 40200 ft 425 kts 17°
2026-04-14 12:54 42.54211 -5.06123 40201 ft 425 kts 17°
2026-04-14 12:54 42.59665 -5.02947 40202 ft 425 kts 17°
2026-04-14 12:55 42.65081 -4.99785 40203 ft 424 kts 17°
2026-04-14 12:55 42.70487 -4.96624 40209 ft 424 kts 17°
2026-04-14 12:56 42.75895 -4.93456 40202 ft 425 kts 17°
2026-04-14 12:56 42.81335 -4.90263 40194 ft 425 kts 17°
2026-04-14 12:57 42.86776 -4.87062 40188 ft 424 kts 17°
2026-04-14 12:57 42.92152 -4.83893 40184 ft 423 kts 17°
2026-04-14 12:58 42.97587 -4.80684 40180 ft 424 kts 17°
2026-04-14 12:58 43.02990 -4.77488 40177 ft 424 kts 17°
2026-04-14 12:59 43.08389 -4.74288 40180 ft 424 kts 17°
2026-04-14 12:59 43.13818 -4.71064 40186 ft 425 kts 17°
2026-04-14 13:00 43.19228 -4.67845 40183 ft 425 kts 17°
2026-04-14 13:00 43.24640 -4.64618 40183 ft 424 kts 17°
2026-04-14 13:01 43.30045 -4.61389 40180 ft 424 kts 17°
2026-04-14 13:01 43.35451 -4.58153 40173 ft 424 kts 17°
2026-04-14 13:02 43.40895 -4.54888 40168 ft 423 kts 17°
2026-04-14 13:02 43.46315 -4.51631 40170 ft 423 kts 17°
2026-04-14 13:03 43.51695 -4.48393 40157 ft 425 kts 17°
2026-04-14 13:03 43.57135 -4.45111 40175 ft 424 kts 17°
2026-04-14 13:04 43.62521 -4.41855 40167 ft 424 kts 17°
2026-04-14 13:04 43.67912 -4.38590 40179 ft 423 kts 17°
2026-04-14 13:05 43.73306 -4.35318 40182 ft 423 kts 17°
2026-04-14 13:05 43.78750 -4.32007 40179 ft 424 kts 17°
2026-04-14 13:06 43.84145 -4.28722 40187 ft 424 kts 17°
2026-04-14 13:06 43.89522 -4.25439 40194 ft 424 kts 18°
2026-04-14 13:07 43.94920 -4.22137 40194 ft 424 kts 17°
2026-04-14 13:07 44.00328 -4.18823 40194 ft 423 kts 18°
2026-04-14 13:08 44.05693 -4.15529 40191 ft 423 kts 17°
2026-04-14 13:08 44.11068 -4.12223 40192 ft 424 kts 17°
2026-04-14 13:09 44.16484 -4.08886 40182 ft 425 kts 18°
2026-04-14 13:09 44.21896 -4.05543 40177 ft 425 kts 17°
2026-04-14 13:10 44.27322 -4.02184 40182 ft 424 kts 17°
2026-04-14 13:10 44.32682 -3.98846 40180 ft 425 kts 18°
2026-04-14 13:11 44.37920 -3.94819 40171 ft 428 kts 22°
2026-04-14 13:11 44.43108 -3.90698 40168 ft 429 kts 22°
2026-04-14 13:12 44.48291 -3.86577 40161 ft 429 kts 22°
2026-04-14 13:12 44.53486 -3.82440 40153 ft 429 kts 22°
2026-04-14 13:13 44.58679 -3.78299 40148 ft 428 kts 22°
2026-04-14 13:13 44.63872 -3.74151 40154 ft 428 kts 22°
2026-04-14 13:14 44.69058 -3.70001 40151 ft 428 kts 22°
2026-04-14 13:14 44.74246 -3.65842 40148 ft 428 kts 22°
2026-04-14 13:15 44.79419 -3.61686 40147 ft 429 kts 22°
2026-04-14 13:15 44.84605 -3.57511 40149 ft 429 kts 22°
2026-04-14 13:16 44.89788 -3.53328 40149 ft 428 kts 22°
2026-04-14 13:16 44.94982 -3.49125 40146 ft 428 kts 22°
2026-04-14 13:17 45.00131 -3.44950 40154 ft 428 kts 22°
2026-04-14 13:17 45.05315 -3.40737 40150 ft 428 kts 22°
2026-04-14 13:18 45.10519 -3.36496 40140 ft 428 kts 22°
2026-04-14 13:18 45.11619 -3.35598 40143 ft 428 kts 22°
2026-04-14 13:19 45.12653 -3.34754 40144 ft 428 kts 22°
2026-04-14 13:20 45.17643 -3.30678 40145 ft 429 kts 22°
2026-04-14 13:20 45.20379 -3.28438 40146 ft 429 kts 22°
2026-04-14 13:21 45.25420 -3.24306 40143 ft 429 kts 22°
2026-04-14 13:21 45.27978 -3.22204 39865 ft 424 kts 24°
2026-04-14 13:21 45.30501 -3.20113 40230 ft 413 kts 24°
2026-04-14 13:22 45.35564 -3.15956 40245 ft 430 kts 23°
2026-04-14 13:22 45.38180 -3.13819 40124 ft 431 kts 23°
2026-04-14 13:22 45.40740 -3.11714 40179 ft 423 kts 23°
2026-04-14 13:23 45.45849 -3.07514 40204 ft 421 kts 22°
2026-04-14 13:23 45.50928 -3.03329 40204 ft 423 kts 23°
2026-04-14 13:24 45.56015 -2.99126 40200 ft 423 kts 23°
2026-04-14 13:24 45.63641 -2.92801 40186 ft 423 kts 23°
2026-04-14 13:25 45.68681 -2.88609 40179 ft 422 kts 23°
2026-04-14 13:26 45.78785 -2.80175 40175 ft 421 kts 23°
2026-04-14 13:26 45.83838 -2.75943 40174 ft 421 kts 23°
2026-04-14 13:27 45.88899 -2.71694 40173 ft 421 kts 23°
2026-04-14 13:27 45.93951 -2.67444 40170 ft 421 kts 23°
2026-04-14 13:28 45.98994 -2.63191 40169 ft 420 kts 23°
2026-04-14 13:28 46.04000 -2.58962 40166 ft 420 kts 23°
2026-04-14 13:29 46.09036 -2.54696 40163 ft 419 kts 23°
2026-04-14 13:29 46.14058 -2.50434 40162 ft 419 kts 23°
2026-04-14 13:30 46.19075 -2.46162 40158 ft 420 kts 23°
2026-04-14 13:30 46.24097 -2.41856 40172 ft 420 kts 23°
2026-04-14 13:31 46.29126 -2.37534 40181 ft 421 kts 23°
2026-04-14 13:31 46.34144 -2.33213 40176 ft 421 kts 24°
2026-04-14 13:32 46.39159 -2.28884 40176 ft 421 kts 24°
2026-04-14 13:32 46.44195 -2.24529 40175 ft 420 kts 24°
2026-04-14 13:33 46.49193 -2.20197 40175 ft 420 kts 24°
2026-04-14 13:33 46.54223 -2.15828 40173 ft 420 kts 24°
2026-04-14 13:34 46.61753 -2.09270 40177 ft 421 kts 24°
2026-04-14 13:35 46.66774 -2.04885 40183 ft 421 kts 24°
2026-04-14 13:35 46.71787 -2.00499 40179 ft 422 kts 24°
2026-04-14 13:36 46.76823 -1.96080 40170 ft 422 kts 24°
2026-04-14 13:36 46.81856 -1.91655 40169 ft 422 kts 24°
2026-04-14 13:37 46.86903 -1.87208 40169 ft 422 kts 24°
2026-04-14 13:37 46.91909 -1.82787 40168 ft 421 kts 24°
2026-04-14 13:38 46.96932 -1.78341 40167 ft 421 kts 24°
2026-04-14 13:38 47.01936 -1.73903 40168 ft 421 kts 24°
2026-04-14 13:39 47.06946 -1.69450 40163 ft 422 kts 23°
2026-04-14 13:39 47.11994 -1.64949 40161 ft 423 kts 24°
2026-04-14 13:40 47.16668 -1.59540 40161 ft 438 kts 37°
2026-04-14 13:40 47.20530 -1.52433 40156 ft 449 kts 44°
2026-04-14 13:41 47.24214 -1.45034 40157 ft 449 kts 44°
2026-04-14 13:41 47.27905 -1.37607 40158 ft 449 kts 44°
2026-04-14 13:42 47.31580 -1.30194 40158 ft 450 kts 45°
2026-04-14 13:42 47.35279 -1.22714 40159 ft 451 kts 45°
2026-04-14 13:43 47.38953 -1.15263 40159 ft 452 kts 45°
2026-04-14 13:43 47.42664 -1.07717 40159 ft 452 kts 45°
2026-04-14 13:44 47.46349 -1.00204 40160 ft 452 kts 45°
2026-04-14 13:44 47.50014 -0.92711 40160 ft 452 kts 45°
2026-04-14 13:44 47.51842 -0.88941 40015 ft 449 kts 46°
2026-04-14 13:45 47.53471 -0.85006 39568 ft 453 kts 52°
2026-04-14 13:45 47.54778 -0.80747 39002 ft 459 kts 59°
2026-04-14 13:45 47.55870 -0.76328 38405 ft 458 kts 60°
2026-04-14 13:45 47.56901 -0.72102 37829 ft 456 kts 60°
2026-04-14 13:46 47.57535 -0.69507 37474 ft 454 kts 60°
2026-04-14 13:46 47.58597 -0.65151 36817 ft 451 kts 60°
2026-04-14 13:46 47.59654 -0.60805 36115 ft 447 kts 60°
2026-04-14 13:46 47.60694 -0.56500 35459 ft 441 kts 61°
2026-04-14 13:47 47.61717 -0.52252 34834 ft 436 kts 61°
2026-04-14 13:47 47.62723 -0.48069 34245 ft 430 kts 61°
2026-04-14 13:47 47.63712 -0.43949 33687 ft 424 kts 61°
2026-04-14 13:47 47.64684 -0.39895 33142 ft 418 kts 61°
2026-04-14 13:48 47.65660 -0.35818 32598 ft 412 kts 61°
2026-04-14 13:48 47.66608 -0.31855 32068 ft 406 kts 62°
2026-04-14 13:48 47.67537 -0.27961 31558 ft 401 kts 62°
2026-04-14 13:48 47.68457 -0.24103 31047 ft 396 kts 62°
2026-04-14 13:49 47.69324 -0.20462 30560 ft 392 kts 63°
2026-04-14 13:49 47.69781 -0.18542 30301 ft 390 kts 63°
2026-04-14 13:49 47.70668 -0.14807 29810 ft 386 kts 63°
2026-04-14 13:49 47.71556 -0.11065 29331 ft 383 kts 63°
2026-04-14 13:50 47.72437 -0.07344 28850 ft 379 kts 63°
2026-04-14 13:50 47.73308 -0.03663 28369 ft 376 kts 64°
2026-04-14 13:50 47.74167 -0.00022 27870 ft 373 kts 64°
2026-04-14 13:50 47.74412 0.01016 27734 ft 371 kts 64°
2026-04-14 13:51 47.75088 0.03878 27354 ft 370 kts 64°
2026-04-14 13:51 47.75514 0.05684 27110 ft 370 kts 64°
2026-04-14 13:51 47.76361 0.09281 26624 ft 370 kts 64°
2026-04-14 13:52 47.77206 0.12880 26148 ft 368 kts 64°
2026-04-14 13:52 47.78046 0.16469 25652 ft 366 kts 64°
2026-04-14 13:52 47.78872 0.20003 25167 ft 364 kts 63°
2026-04-14 13:52 47.79700 0.23545 24684 ft 360 kts 63°